Simultaneous Nadir Overpasses (SNOs) Predictions

Prediction of SNOs between AQUA and NOAA-19 Satellite Orbit:

Table of predicted SNOs for the next 14.0 days since TLE Epoch: 12/4/2021
Index Date (AQUA) Time (AQUA) Lat,Lon (AQUA) SZA (AQUA ) Date (NOAA-19) Time (NOAA-19) Lat,Lon (NOAA-19) SZA (NOAA-19 ) Distance(km) Time Diff (sec)
1 12/06/2021 01:32:13 78.23, 137.29 101.16 12/06/2021 01:31:29 78.20, 137.23 101.15 3.30 44
2 12/06/2021 02:21:40 -78.27, -55.29 78.78 12/06/2021 02:22:34 -78.24, -55.30 78.82 3.65 54
3 12/08/2021 07:05:55 -78.04,-125.24 78.81 12/08/2021 07:04:46 -77.95,-127.46 78.75 52.26 69
4 12/08/2021 07:55:27 78.25, 41.39 101.45 12/08/2021 07:55:33 78.21, 41.37 101.42 3.94 6
5 12/10/2021 13:29:12 -78.19, 138.22 78.40 12/10/2021 13:28:43 -78.22, 138.21 78.36 3.22 29
6 12/10/2021 14:18:40 78.23, -54.33 101.66 12/10/2021 14:19:36 78.26, -54.27 101.67 3.44 56
7 12/12/2021 19:02:57 78.10,-124.78 101.68 12/12/2021 19:01:46 78.04,-126.03 101.72 29.59 71
8 12/12/2021 19:52:26 -78.22, 42.27 78.17 12/12/2021 19:52:47 -78.23, 42.32 78.17 1.09 21
9 12/15/2021 01:26:12 78.19, 139.02 101.94 12/15/2021 01:25:46 78.20, 138.97 101.96 1.62 26
10 12/15/2021 02:15:39 -78.22, -53.50 78.02 12/15/2021 02:16:51 -78.23, -53.61 78.02 2.59 72
11 12/17/2021 06:59:58 -78.18,-124.41 77.96 12/17/2021 06:58:56 -78.18,-124.31 77.94 2.24 62



Historial Predications of SNOs between AQUA and NOAA-19
